contact:dominique.lefevre@mio.osupytheas.fr, maurice.libes@osupytheas.fr, didier.mallarino@osupytheas.fr
Project:EMSO http://www.emso-fr.org/EMSO-France
Depth: 2436.0 m
Title:EMSO Ligure Ouest : Data MII capteur CSTAR
DateTime,Latitude,Longitude,Instrument_Serial,Reference_Counts,Signal_Counts,Corrected_Signal_raw_counts,Calculated_Beam_c_inverse_meters,Internal_thermistor_counts
DateTime,Latitude,Longitude,Instrument_Serial,Reference_Counts,Signal_Counts,Corrected_Signal_raw_counts,Calculated_Beam_c_inverse_meters,Internal_thermistor_counts
2022-08-17T00:02:55,42.805,6.029,CST-1368DR,4613,5236,12087,01.025,551
2022-08-17T00:05:57,42.805,6.029,CST-1368DR,4613,5235,12085,01.025,551
2022-08-17T00:08:59,42.805,6.029,CST-1368DR,4613,5235,12083,01.026,551
2022-08-17T00:12:00,42.805,6.029,CST-1368DR,4613,5236,12085,01.025,551
2022-08-17T00:15:02,42.805,6.029,CST-1368DR,4613,5239,12093,01.023,551
2022-08-17T00:18:03,42.805,6.029,CST-1368DR,4613,5238,12091,01.023,551
2022-08-17T00:21:05,42.805,6.029,CST-1368DR,4613,5238,12091,01.023,551
2022-08-17T00:24:06,42.805,6.029,CST-1368DR,4613,5235,12084,01.026,551
2022-08-17T00:27:08,42.805,6.029,CST-1368DR,4613,5236,12087,01.025,551
2022-08-17T00:30:10,42.805,6.029,CST-1368DR,4613,5237,12089,01.024,551
2022-08-17T00:33:11,42.805,6.029,CST-1368DR,4613,5236,12087,01.025,551
2022-08-17T00:36:13,42.805,6.029,CST-1368DR,4613,5238,12092,01.023,551
2022-08-17T00:39:14,42.805,6.029,CST-1368DR,4613,5239,12093,01.023,551
2022-08-17T00:42:16,42.805,6.029,CST-1368DR,4613,5236,12087,01.025,551
2022-08-17T00:45:18,42.805,6.029,CST-1368DR,4613,5238,12091,01.023,551
2022-08-17T00:48:19,42.805,6.029,CST-1368DR,4613,5239,12093,01.023,551
2022-08-17T00:51:21,42.805,6.029,CST-1368DR,4613,5237,12088,01.024,551
2022-08-17T00:54:22,42.805,6.029,CST-1368DR,4613,5238,12091,01.023,551
2022-08-17T00:57:24,42.805,6.029,CST-1368DR,4613,5239,12092,01.023,551
2022-08-17T01:00:25,42.805,6.029,CST-1368DR,4613,5241,12097,01.021,551
2022-08-17T01:03:27,42.805,6.029,CST-1368DR,4613,5238,12091,01.023,551
2022-08-17T01:06:29,42.805,6.029,CST-1368DR,4613,5236,12087,01.025,551
2022-08-17T01:09:30,42.805,6.029,CST-1368DR,4613,5237,12089,01.024,551
2022-08-17T01:12:32,42.805,6.029,CST-1368DR,4613,5237,12088,01.024,551
2022-08-17T01:15:33,42.805,6.029,CST-1368DR,4613,5238,12091,01.023,551
2022-08-17T01:18:35,42.805,6.029,CST-1368DR,4613,5236,12087,01.025,551
2022-08-17T01:21:36,42.805,6.029,CST-1368DR,4613,5228,12068,01.031,551
2022-08-17T01:24:38,42.805,6.029,CST-1368DR,4613,5235,12084,01.026,551
2022-08-17T01:27:40,42.805,6.029,CST-1368DR,4613,5236,12085,01.025,551
2022-08-17T01:30:41,42.805,6.029,CST-1368DR,4613,5240,12096,01.022,551
2022-08-17T01:33:43,42.805,6.029,CST-1368DR,4613,5242,12100,01.020,551
2022-08-17T01:36:44,42.805,6.029,CST-1368DR,4613,5242,12099,01.021,551
2022-08-17T01:39:46,42.805,6.029,CST-1368DR,4613,5242,12100,01.020,551
2022-08-17T01:42:47,42.805,6.029,CST-1368DR,4613,5238,12091,01.023,551
2022-08-17T01:45:49,42.805,6.029,CST-1368DR,4613,5243,12102,01.020,551
2022-08-17T01:48:51,42.805,6.029,CST-1368DR,4613,5241,12097,01.021,551
2022-08-17T01:51:52,42.805,6.029,CST-1368DR,4613,5242,12100,01.020,551
2022-08-17T01:54:54,42.805,6.029,CST-1368DR,4613,5243,12102,01.020,551
2022-08-17T01:57:55,42.805,6.029,CST-1368DR,4613,5242,12101,01.020,551
2022-08-17T02:00:57,42.805,6.029,CST-1368DR,4613,5242,12100,01.020,551
2022-08-17T02:03:59,42.805,6.029,CST-1368DR,4613,5241,12098,01.021,551
2022-08-17T02:07:00,42.805,6.029,CST-1368DR,4613,5243,12102,01.020,551
2022-08-17T02:10:02,42.805,6.029,CST-1368DR,4613,5242,12101,01.020,551
2022-08-17T02:13:03,42.805,6.029,CST-1368DR,4613,5244,12104,01.019,551
2022-08-17T02:16:05,42.805,6.029,CST-1368DR,4613,5244,12105,01.019,551
2022-08-17T02:19:06,42.805,6.029,CST-1368DR,4613,5244,12105,01.019,551
2022-08-17T02:22:08,42.805,6.029,CST-1368DR,4613,5245,12107,01.018,551
2022-08-17T02:25:10,42.805,6.029,CST-1368DR,4613,5244,12104,01.019,551
2022-08-17T02:28:11,42.805,6.029,CST-1368DR,4613,5245,12107,01.018,551
2022-08-17T02:31:13,42.805,6.029,CST-1368DR,4613,5243,12103,01.019,551
2022-08-17T02:34:14,42.805,6.029,CST-1368DR,4613,5247,12112,01.016,551
2022-08-17T02:37:16,42.805,6.029,CST-1368DR,4613,5246,12109,01.017,551
2022-08-17T02:40:17,42.805,6.029,CST-1368DR,4613,5248,12115,01.015,551
2022-08-17T02:43:19,42.805,6.029,CST-1368DR,4613,5246,12110,01.017,551
2022-08-17T02:46:21,42.805,6.029,CST-1368DR,4613,5247,12113,01.016,551
2022-08-17T02:49:22,42.805,6.029,CST-1368DR,4613,5249,12115,01.015,551
2022-08-17T02:52:24,42.805,6.029,CST-1368DR,4613,5247,12113,01.016,551
2022-08-17T02:55:25,42.805,6.029,CST-1368DR,4613,5248,12114,01.016,551
2022-08-17T02:58:27,42.805,6.029,CST-1368DR,4613,5246,12110,01.017,551
2022-08-17T03:01:29,42.805,6.029,CST-1368DR,4613,5245,12108,01.018,551
2022-08-17T03:04:30,42.805,6.029,CST-1368DR,4613,5248,12114,01.016,551
2022-08-17T03:07:32,42.805,6.029,CST-1368DR,4613,5247,12112,01.016,551
2022-08-17T03:10:33,42.805,6.029,CST-1368DR,4613,5248,12115,01.015,551
2022-08-17T03:13:35,42.805,6.029,CST-1368DR,4613,5247,12112,01.016,551
2022-08-17T03:16:36,42.805,6.029,CST-1368DR,4613,5249,12115,01.015,551
2022-08-17T03:19:38,42.805,6.029,CST-1368DR,4613,5249,12115,01.015,551
2022-08-17T03:22:40,42.805,6.029,CST-1368DR,4613,5248,12114,01.016,551
2022-08-17T03:25:41,42.805,6.029,CST-1368DR,4613,5244,12106,01.018,551
2022-08-17T03:28:43,42.805,6.029,CST-1368DR,4613,5248,12114,01.016,551
2022-08-17T03:31:44,42.805,6.029,CST-1368DR,4613,5249,12116,01.015,551
2022-08-17T03:34:46,42.805,6.029,CST-1368DR,4613,5248,12114,01.016,551
2022-08-17T03:37:48,42.805,6.029,CST-1368DR,4613,5247,12111,01.017,551
2022-08-17T03:40:49,42.805,6.029,CST-1368DR,4613,5247,12111,01.017,551
2022-08-17T03:43:51,42.805,6.029,CST-1368DR,4613,5248,12114,01.016,551
2022-08-17T03:46:52,42.805,6.029,CST-1368DR,4613,5248,12114,01.016,551
2022-08-17T03:49:54,42.805,6.029,CST-1368DR,4613,5249,12117,01.015,551
2022-08-17T03:52:55,42.805,6.029,CST-1368DR,4613,5248,12115,01.015,551
2022-08-17T03:55:57,42.805,6.029,CST-1368DR,4613,5248,12115,01.015,551
2022-08-17T03:58:59,42.805,6.029,CST-1368DR,4613,5249,12116,01.015,551
2022-08-17T04:02:00,42.805,6.029,CST-1368DR,4613,5249,12116,01.015,551
2022-08-17T04:05:02,42.805,6.029,CST-1368DR,4613,5249,12117,01.015,551
2022-08-17T04:08:03,42.805,6.029,CST-1368DR,4613,5248,12115,01.015,551
2022-08-17T04:11:05,42.805,6.029,CST-1368DR,4613,5249,12116,01.015,551
2022-08-17T04:14:06,42.805,6.029,CST-1368DR,4613,5248,12114,01.016,551
2022-08-17T04:17:08,42.805,6.029,CST-1368DR,4613,5247,12113,01.016,551
2022-08-17T04:20:10,42.805,6.029,CST-1368DR,4613,5247,12112,01.016,551
2022-08-17T04:23:11,42.805,6.029,CST-1368DR,4613,5249,12116,01.015,551
2022-08-17T04:26:13,42.805,6.029,CST-1368DR,4613,5248,12114,01.016,551
2022-08-17T04:29:14,42.805,6.029,CST-1368DR,4613,5249,12115,01.015,551
2022-08-17T04:32:16,42.805,6.029,CST-1368DR,4613,5248,12114,01.016,551
2022-08-17T04:35:18,42.805,6.029,CST-1368DR,4613,5246,12110,01.017,551
2022-08-17T04:38:19,42.805,6.029,CST-1368DR,4613,5248,12115,01.015,551
2022-08-17T04:41:21,42.805,6.029,CST-1368DR,4613,5248,12115,01.015,551
2022-08-17T04:44:22,42.805,6.029,CST-1368DR,4613,5248,12115,01.015,551
2022-08-17T04:47:24,42.805,6.029,CST-1368DR,4613,5247,12113,01.016,551
2022-08-17T04:50:25,42.805,6.029,CST-1368DR,4613,5245,12107,01.018,551
2022-08-17T04:53:27,42.805,6.029,CST-1368DR,4613,5246,12110,01.017,551
2022-08-17T04:56:29,42.805,6.029,CST-1368DR,4613,5247,12113,01.016,551
2022-08-17T04:59:30,42.805,6.029,CST-1368DR,4613,5248,12114,01.016,551
2022-08-17T05:02:32,42.805,6.029,CST-1368DR,4613,5246,12110,01.017,551
2022-08-17T05:05:33,42.805,6.029,CST-1368DR,4613,5246,12110,01.017,551
2022-08-17T05:08:35,42.805,6.029,CST-1368DR,4613,5246,12109,01.017,551
2022-08-17T05:11:36,42.805,6.029,CST-1368DR,4613,5247,12113,01.016,551
2022-08-17T05:14:38,42.805,6.029,CST-1368DR,4613,5246,12109,01.017,551
2022-08-17T05:17:40,42.805,6.029,CST-1368DR,4613,5247,12111,01.017,551
2022-08-17T05:20:41,42.805,6.029,CST-1368DR,4613,5247,12111,01.017,551
2022-08-17T05:23:43,42.805,6.029,CST-1368DR,4613,5246,12110,01.017,551
2022-08-17T05:26:44,42.805,6.029,CST-1368DR,4613,5247,12113,01.016,551
2022-08-17T05:29:46,42.805,6.029,CST-1368DR,4613,5247,12111,01.017,551
2022-08-17T05:32:48,42.805,6.029,CST-1368DR,4613,5248,12114,01.016,551
2022-08-17T05:35:49,42.805,6.029,CST-1368DR,4613,5247,12112,01.016,551
2022-08-17T05:38:51,42.805,6.029,CST-1368DR,4613,5247,12112,01.016,551
2022-08-17T05:41:52,42.805,6.029,CST-1368DR,4613,5248,12114,01.016,551
2022-08-17T05:44:54,42.805,6.029,CST-1368DR,4613,5246,12109,01.017,551
2022-08-17T05:47:55,42.805,6.029,CST-1368DR,4613,5247,12112,01.016,551
2022-08-17T05:50:57,42.805,6.029,CST-1368DR,4613,5247,12111,01.017,551
2022-08-17T05:53:59,42.805,6.029,CST-1368DR,4613,5248,12114,01.016,551
2022-08-17T05:57:00,42.805,6.029,CST-1368DR,4613,5247,12112,01.016,551
2022-08-17T06:00:02,42.805,6.029,CST-1368DR,4613,5247,12113,01.016,551
2022-08-17T06:03:03,42.805,6.029,CST-1368DR,4613,5247,12113,01.016,551
2022-08-17T06:06:05,42.805,6.029,CST-1368DR,4613,5248,12114,01.016,551
2022-08-17T06:09:06,42.805,6.029,CST-1368DR,4613,5247,12113,01.016,551
2022-08-17T06:12:08,42.805,6.029,CST-1368DR,4613,5247,12111,01.017,551
2022-08-17T06:15:10,42.805,6.029,CST-1368DR,4613,5246,12109,01.017,551
2022-08-17T06:18:11,42.805,6.029,CST-1368DR,4613,5247,12112,01.016,551
2022-08-17T06:21:13,42.805,6.029,CST-1368DR,4613,5248,12114,01.016,551
2022-08-17T06:24:14,42.805,6.029,CST-1368DR,4613,5249,12115,01.015,550
2022-08-17T06:27:16,42.805,6.029,CST-1368DR,4613,5247,12112,01.016,551
2022-08-17T06:30:18,42.805,6.029,CST-1368DR,4613,5248,12114,01.016,551
2022-08-17T06:33:19,42.805,6.029,CST-1368DR,4613,5246,12109,01.017,551
2022-08-17T06:36:21,42.805,6.029,CST-1368DR,4613,5248,12114,01.016,551
2022-08-17T06:39:22,42.805,6.029,CST-1368DR,4613,5248,12114,01.016,551
2022-08-17T06:42:24,42.805,6.029,CST-1368DR,4613,5247,12113,01.016,551
2022-08-17T06:45:25,42.805,6.029,CST-1368DR,4613,5247,12112,01.016,551
2022-08-17T06:48:27,42.805,6.029,CST-1368DR,4613,5248,12114,01.016,551
2022-08-17T06:51:29,42.805,6.029,CST-1368DR,4613,5248,12114,01.016,551
2022-08-17T06:54:30,42.805,6.029,CST-1368DR,4613,5248,12115,01.015,551
2022-08-17T06:57:32,42.805,6.029,CST-1368DR,4613,5248,12114,01.016,551
2022-08-17T07:00:33,42.805,6.029,CST-1368DR,4613,5248,12114,01.016,551
2022-08-17T07:03:35,42.805,6.029,CST-1368DR,4613,5248,12114,01.016,551
2022-08-17T07:06:37,42.805,6.029,CST-1368DR,4613,5248,12114,01.016,551
2022-08-17T07:09:38,42.805,6.029,CST-1368DR,4613,5249,12115,01.015,551
2022-08-17T07:12:40,42.805,6.029,CST-1368DR,4613,5247,12111,01.017,551
2022-08-17T07:15:41,42.805,6.029,CST-1368DR,4613,5248,12114,01.016,551
2022-08-17T07:18:43,42.805,6.029,CST-1368DR,4613,5247,12112,01.016,551
2022-08-17T07:21:44,42.805,6.029,CST-1368DR,4613,5249,12115,01.015,551
2022-08-17T07:24:46,42.805,6.029,CST-1368DR,4613,5249,12115,01.015,551
2022-08-17T07:27:48,42.805,6.029,CST-1368DR,4612,5250,12120,01.014,551
2022-08-17T07:30:49,42.805,6.029,CST-1368DR,4612,5247,12115,01.015,551
2022-08-17T07:33:51,42.805,6.029,CST-1368DR,4613,5248,12115,01.015,551
2022-08-17T07:36:52,42.805,6.029,CST-1368DR,4613,5249,12115,01.015,551
2022-08-17T07:39:54,42.805,6.029,CST-1368DR,4613,5249,12117,01.015,551
2022-08-17T07:42:55,42.805,6.029,CST-1368DR,4613,5249,12117,01.015,551
2022-08-17T07:45:57,42.805,6.029,CST-1368DR,4613,5249,12117,01.015,551
2022-08-17T07:48:59,42.805,6.029,CST-1368DR,4613,5249,12117,01.015,551
2022-08-17T07:52:00,42.805,6.029,CST-1368DR,4613,5249,12116,01.015,551
2022-08-17T07:55:02,42.805,6.029,CST-1368DR,4613,5248,12114,01.016,551
2022-08-17T07:58:03,42.805,6.029,CST-1368DR,4613,5249,12115,01.015,551
2022-08-17T08:01:05,42.805,6.029,CST-1368DR,4613,5247,12113,01.016,551
2022-08-17T08:04:07,42.805,6.029,CST-1368DR,4613,5248,12114,01.016,551
2022-08-17T08:07:08,42.805,6.029,CST-1368DR,4613,5248,12115,01.015,551
2022-08-17T08:10:10,42.805,6.029,CST-1368DR,4613,5247,12111,01.017,551
2022-08-17T08:13:11,42.805,6.029,CST-1368DR,4613,5247,12112,01.016,551
2022-08-17T08:16:13,42.805,6.029,CST-1368DR,4613,5247,12111,01.017,551
2022-08-17T08:19:14,42.805,6.029,CST-1368DR,4612,5248,12116,01.015,551
2022-08-17T08:22:16,42.805,6.029,CST-1368DR,4612,5247,12113,01.016,551
2022-08-17T08:25:18,42.805,6.029,CST-1368DR,4612,5248,12117,01.015,551
2022-08-17T08:28:19,42.805,6.029,CST-1368DR,4613,5247,12112,01.016,551
2022-08-17T08:31:21,42.805,6.029,CST-1368DR,4613,5247,12111,01.017,551
2022-08-17T08:34:22,42.805,6.029,CST-1368DR,4613,5247,12113,01.016,551
2022-08-17T08:37:24,42.805,6.029,CST-1368DR,4613,5245,12108,01.018,551
2022-08-17T08:40:25,42.805,6.029,CST-1368DR,4613,5244,12106,01.018,551
2022-08-17T08:43:27,42.805,6.029,CST-1368DR,4612,5245,12109,01.017,551
2022-08-17T08:46:29,42.805,6.029,CST-1368DR,4612,5245,12110,01.017,551
2022-08-17T08:49:30,42.805,6.029,CST-1368DR,4612,5246,12113,01.016,551
2022-08-17T08:52:32,42.805,6.029,CST-1368DR,4612,5245,12110,01.017,551
2022-08-17T08:55:33,42.805,6.029,CST-1368DR,4612,5244,12107,01.018,551
2022-08-17T08:58:35,42.805,6.029,CST-1368DR,4612,5245,12110,01.017,551
2022-08-17T09:01:37,42.805,6.029,CST-1368DR,4612,5245,12109,01.017,551
2022-08-17T09:04:38,42.805,6.029,CST-1368DR,4612,5245,12110,01.017,551
2022-08-17T09:07:40,42.805,6.029,CST-1368DR,4612,5245,12110,01.017,551
2022-08-17T09:10:41,42.805,6.029,CST-1368DR,4612,5246,12112,01.016,551
2022-08-17T09:13:43,42.805,6.029,CST-1368DR,4612,5247,12115,01.015,551
2022-08-17T09:16:44,42.805,6.029,CST-1368DR,4612,5247,12114,01.016,551
2022-08-17T09:19:46,42.805,6.029,CST-1368DR,4612,5246,12113,01.016,551
2022-08-17T09:22:48,42.805,6.029,CST-1368DR,4612,5247,12113,01.016,551
2022-08-17T09:25:49,42.805,6.029,CST-1368DR,4612,5247,12113,01.016,551
2022-08-17T09:28:51,42.805,6.029,CST-1368DR,4612,5246,12112,01.016,551
2022-08-17T09:31:52,42.805,6.029,CST-1368DR,4612,5246,12112,01.016,551
2022-08-17T09:34:54,42.805,6.029,CST-1368DR,4612,5246,12113,01.016,551
2022-08-17T09:37:55,42.805,6.029,CST-1368DR,4612,5248,12117,01.015,551
2022-08-17T09:40:57,42.805,6.029,CST-1368DR,4612,5247,12115,01.015,551
2022-08-17T09:43:59,42.805,6.029,CST-1368DR,4612,5248,12117,01.015,551
2022-08-17T09:47:00,42.805,6.029,CST-1368DR,4612,5249,12118,01.014,551
2022-08-17T09:50:02,42.805,6.029,CST-1368DR,4612,5246,12113,01.016,551
2022-08-17T09:53:03,42.805,6.029,CST-1368DR,4612,5248,12116,01.015,551
2022-08-17T09:56:05,42.805,6.029,CST-1368DR,4612,5246,12112,01.016,551
2022-08-17T09:59:07,42.805,6.029,CST-1368DR,4612,5247,12114,01.016,551
2022-08-17T10:02:08,42.805,6.029,CST-1368DR,4613,5247,12113,01.016,551
2022-08-17T10:05:10,42.805,6.029,CST-1368DR,4612,5247,12115,01.015,551
2022-08-17T10:08:11,42.805,6.029,CST-1368DR,4612,5249,12118,01.014,551
2022-08-17T10:11:13,42.805,6.029,CST-1368DR,4612,5249,12119,01.014,551
2022-08-17T10:14:14,42.805,6.029,CST-1368DR,4612,5249,12119,01.014,551
2022-08-17T10:17:16,42.805,6.029,CST-1368DR,4612,5247,12115,01.015,551
2022-08-17T10:20:18,42.805,6.029,CST-1368DR,4612,5247,12113,01.016,551
2022-08-17T10:23:19,42.805,6.029,CST-1368DR,4612,5249,12119,01.014,551
2022-08-17T10:26:21,42.805,6.029,CST-1368DR,4612,5248,12117,01.015,551
2022-08-17T10:29:22,42.805,6.029,CST-1368DR,4612,5248,12117,01.015,551
2022-08-17T10:32:24,42.805,6.029,CST-1368DR,4612,5247,12115,01.015,551
2022-08-17T10:35:25,42.805,6.029,CST-1368DR,4612,5248,12117,01.015,551
2022-08-17T10:38:27,42.805,6.029,CST-1368DR,4612,5248,12116,01.015,551
2022-08-17T10:41:29,42.805,6.029,CST-1368DR,4612,5247,12114,01.016,551
2022-08-17T10:44:30,42.805,6.029,CST-1368DR,4612,5248,12117,01.015,551
2022-08-17T10:47:32,42.805,6.029,CST-1368DR,4612,5247,12115,01.015,551
2022-08-17T10:50:33,42.805,6.029,CST-1368DR,4612,5247,12115,01.015,551
2022-08-17T10:53:35,42.805,6.029,CST-1368DR,4612,5248,12116,01.015,551
2022-08-17T10:56:37,42.805,6.029,CST-1368DR,4612,5249,12118,01.014,551
2022-08-17T10:59:38,42.805,6.029,CST-1368DR,4612,5248,12117,01.015,551
2022-08-17T11:02:40,42.805,6.029,CST-1368DR,4612,5247,12115,01.015,551
2022-08-17T11:05:41,42.805,6.029,CST-1368DR,4612,5248,12116,01.015,551
2022-08-17T11:08:43,42.805,6.029,CST-1368DR,4612,5247,12113,01.016,551
2022-08-17T11:11:44,42.805,6.029,CST-1368DR,4612,5249,12118,01.014,551
2022-08-17T11:14:46,42.805,6.029,CST-1368DR,4612,5239,12096,01.022,551
2022-08-17T11:17:48,42.805,6.029,CST-1368DR,4612,5240,12099,01.021,551
2022-08-17T11:20:49,42.805,6.029,CST-1368DR,4612,5241,12100,01.020,551
2022-08-17T11:23:51,42.805,6.029,CST-1368DR,4612,5239,12095,01.022,551
2022-08-17T11:26:52,42.805,6.029,CST-1368DR,4612,5242,12102,01.020,551
2022-08-17T11:29:54,42.805,6.029,CST-1368DR,4612,5243,12105,01.019,551
2022-08-17T11:32:56,42.805,6.029,CST-1368DR,4612,5241,12100,01.020,551
2022-08-17T11:35:57,42.805,6.029,CST-1368DR,4612,5241,12101,01.020,551
2022-08-17T11:38:59,42.805,6.029,CST-1368DR,4612,5241,12101,01.020,551
2022-08-17T11:42:00,42.805,6.029,CST-1368DR,4612,5242,12102,01.020,551
2022-08-17T11:45:02,42.805,6.029,CST-1368DR,4612,5242,12103,01.019,551
2022-08-17T11:48:03,42.805,6.029,CST-1368DR,4612,5239,12097,01.021,551
2022-08-17T11:51:05,42.805,6.029,CST-1368DR,4612,5241,12100,01.020,551
2022-08-17T11:54:07,42.805,6.029,CST-1368DR,4612,5241,12101,01.020,551
2022-08-17T11:57:08,42.805,6.029,CST-1368DR,4612,5241,12100,01.020,551
2022-08-17T12:00:10,42.805,6.029,CST-1368DR,4612,5241,12101,01.020,551
2022-08-17T12:03:11,42.805,6.029,CST-1368DR,4612,5241,12101,01.020,551
2022-08-17T12:06:13,42.805,6.029,CST-1368DR,4612,5239,12095,01.022,551
2022-08-17T12:09:14,42.805,6.029,CST-1368DR,4612,5240,12098,01.021,551
2022-08-17T12:12:16,42.805,6.029,CST-1368DR,4612,5239,12095,01.022,551
2022-08-17T12:15:18,42.805,6.029,CST-1368DR,4612,5240,12098,01.021,551
2022-08-17T12:18:19,42.805,6.029,CST-1368DR,4612,5240,12098,01.021,551
2022-08-17T12:21:21,42.805,6.029,CST-1368DR,4612,5240,12098,01.021,551
2022-08-17T12:24:22,42.805,6.029,CST-1368DR,4612,5239,12097,01.021,551
2022-08-17T12:27:24,42.805,6.029,CST-1368DR,4612,5240,12098,01.021,551
2022-08-17T12:30:26,42.805,6.029,CST-1368DR,4612,5241,12100,01.020,551
2022-08-17T12:33:27,42.805,6.029,CST-1368DR,4612,5240,12099,01.021,551
2022-08-17T12:36:29,42.805,6.029,CST-1368DR,4612,5240,12097,01.021,551
2022-08-17T12:39:30,42.805,6.029,CST-1368DR,4612,5240,12098,01.021,551
2022-08-17T12:42:32,42.805,6.029,CST-1368DR,4612,5240,12099,01.021,551
2022-08-17T12:45:33,42.805,6.029,CST-1368DR,4612,5242,12103,01.019,551
2022-08-17T12:48:35,42.805,6.029,CST-1368DR,4612,5240,12099,01.021,551
2022-08-17T12:51:37,42.805,6.029,CST-1368DR,4612,5240,12097,01.021,551
2022-08-17T12:54:38,42.805,6.029,CST-1368DR,4612,5240,12099,01.021,551
2022-08-17T12:57:40,42.805,6.029,CST-1368DR,4612,5241,12100,01.020,551
2022-08-17T13:00:41,42.805,6.029,CST-1368DR,4612,5240,12098,01.021,551
2022-08-17T13:03:43,42.805,6.029,CST-1368DR,4612,5240,12098,01.021,551
2022-08-17T13:06:44,42.805,6.029,CST-1368DR,4612,5240,12098,01.021,551
2022-08-17T13:09:46,42.805,6.029,CST-1368DR,4612,5240,12098,01.021,551
2022-08-17T13:12:48,42.805,6.029,CST-1368DR,4612,5239,12095,01.022,551
2022-08-17T13:15:49,42.805,6.029,CST-1368DR,4612,5239,12096,01.022,551
2022-08-17T13:18:51,42.805,6.029,CST-1368DR,4612,5235,12086,01.025,551
2022-08-17T13:21:52,42.805,6.029,CST-1368DR,4612,5240,12097,01.021,551
2022-08-17T13:24:54,42.805,6.029,CST-1368DR,4612,5240,12098,01.021,551
2022-08-17T13:27:56,42.805,6.029,CST-1368DR,4612,5240,12097,01.021,551
2022-08-17T13:30:57,42.805,6.029,CST-1368DR,4612,5240,12097,01.021,551
2022-08-17T13:33:59,42.805,6.029,CST-1368DR,4612,5240,12099,01.021,551
2022-08-17T13:37:00,42.805,6.029,CST-1368DR,4612,5240,12099,01.021,551
2022-08-17T13:40:02,42.805,6.029,CST-1368DR,4612,5241,12100,01.020,551
2022-08-17T13:43:03,42.805,6.029,CST-1368DR,4612,5238,12093,01.023,551
2022-08-17T13:46:05,42.805,6.029,CST-1368DR,4612,5239,12097,01.021,551
2022-08-17T13:49:07,42.805,6.029,CST-1368DR,4612,5241,12101,01.020,551
2022-08-17T13:52:08,42.805,6.029,CST-1368DR,4612,5242,12102,01.020,551
2022-08-17T13:55:10,42.805,6.029,CST-1368DR,4612,5241,12101,01.020,551
2022-08-17T13:58:11,42.805,6.029,CST-1368DR,4612,5240,12097,01.021,551
2022-08-17T14:01:13,42.805,6.029,CST-1368DR,4612,5240,12098,01.021,551
2022-08-17T14:04:14,42.805,6.029,CST-1368DR,4612,5240,12099,01.021,551
2022-08-17T14:07:16,42.805,6.029,CST-1368DR,4612,5241,12101,01.020,551
2022-08-17T14:10:18,42.805,6.029,CST-1368DR,4612,5241,12101,01.020,551
2022-08-17T14:13:19,42.805,6.029,CST-1368DR,4612,5239,12095,01.022,551
2022-08-17T14:16:21,42.805,6.029,CST-1368DR,4612,5240,12097,01.021,551
2022-08-17T14:19:22,42.805,6.029,CST-1368DR,4612,5241,12101,01.020,551
2022-08-17T14:22:24,42.805,6.029,CST-1368DR,4612,5241,12101,01.020,551
2022-08-17T14:25:26,42.805,6.029,CST-1368DR,4612,5241,12101,01.020,551
2022-08-17T14:28:27,42.805,6.029,CST-1368DR,4612,5240,12097,01.021,551
2022-08-17T14:31:29,42.805,6.029,CST-1368DR,4612,5204,12015,01.049,551
2022-08-17T14:34:30,42.805,6.029,CST-1368DR,4612,5204,12016,01.048,551
2022-08-17T14:37:32,42.805,6.029,CST-1368DR,4612,5205,12018,01.048,551
2022-08-17T14:40:33,42.805,6.029,CST-1368DR,4612,5206,12020,01.047,551
2022-08-17T14:43:35,42.805,6.029,CST-1368DR,4612,5238,12093,01.023,551
2022-08-17T14:46:37,42.805,6.029,CST-1368DR,4612,5240,12097,01.021,551
2022-08-17T14:49:38,42.805,6.029,CST-1368DR,4612,5239,12095,01.022,551
2022-08-17T14:52:40,42.805,6.029,CST-1368DR,4612,5238,12093,01.023,551
2022-08-17T14:55:41,42.805,6.029,CST-1368DR,4612,5238,12094,01.022,551
2022-08-17T14:58:43,42.805,6.029,CST-1368DR,4612,5238,12093,01.023,551
2022-08-17T15:01:44,42.805,6.029,CST-1368DR,4612,5239,12095,01.022,551
2022-08-17T15:04:46,42.805,6.029,CST-1368DR,4612,5239,12095,01.022,551
2022-08-17T15:07:48,42.805,6.029,CST-1368DR,4612,5236,12089,01.024,551
2022-08-17T15:10:49,42.805,6.029,CST-1368DR,4612,5239,12095,01.022,551
2022-08-17T15:13:51,42.805,6.029,CST-1368DR,4612,5238,12094,01.022,551
2022-08-17T15:16:52,42.805,6.029,CST-1368DR,4612,5238,12094,01.022,551
2022-08-17T15:19:54,42.805,6.029,CST-1368DR,4612,5238,12093,01.023,551
2022-08-17T15:22:56,42.805,6.029,CST-1368DR,4612,5237,12090,01.024,551
2022-08-17T15:25:57,42.805,6.029,CST-1368DR,4612,5238,12093,01.023,551
2022-08-17T15:28:59,42.805,6.029,CST-1368DR,4612,5236,12089,01.024,551
2022-08-17T15:32:00,42.805,6.029,CST-1368DR,4612,5239,12095,01.022,551
2022-08-17T15:35:02,42.805,6.029,CST-1368DR,4612,5239,12097,01.021,551
2022-08-17T15:38:03,42.805,6.029,CST-1368DR,4612,5238,12094,01.022,551
2022-08-17T15:41:05,42.805,6.029,CST-1368DR,4612,5238,12093,01.023,551
2022-08-17T15:44:07,42.805,6.029,CST-1368DR,4612,5238,12093,01.023,550
2022-08-17T15:47:08,42.805,6.029,CST-1368DR,4612,5238,12093,01.023,551
2022-08-17T15:50:10,42.805,6.029,CST-1368DR,4612,5235,12087,01.025,551
2022-08-17T15:53:11,42.805,6.029,CST-1368DR,4612,5237,12091,01.023,551
2022-08-17T15:56:13,42.805,6.029,CST-1368DR,4612,5239,12095,01.022,551
2022-08-17T15:59:14,42.805,6.029,CST-1368DR,4612,5238,12094,01.022,551
2022-08-17T16:02:16,42.805,6.029,CST-1368DR,4612,5238,12094,01.022,551
2022-08-17T16:05:18,42.805,6.029,CST-1368DR,4612,5238,12093,01.023,551
2022-08-17T16:08:19,42.805,6.029,CST-1368DR,4612,5238,12094,01.022,551
2022-08-17T16:11:21,42.805,6.029,CST-1368DR,4612,5238,12094,01.022,551
2022-08-17T16:14:22,42.805,6.029,CST-1368DR,4612,5237,12091,01.023,551
2022-08-17T16:17:24,42.805,6.029,CST-1368DR,4612,5237,12091,01.023,551
2022-08-17T16:20:26,42.805,6.029,CST-1368DR,4612,5237,12091,01.023,551
2022-08-17T16:23:27,42.805,6.029,CST-1368DR,4612,5236,12088,01.024,551
2022-08-17T16:26:29,42.805,6.029,CST-1368DR,4612,5236,12089,01.024,551
2022-08-17T16:29:30,42.805,6.029,CST-1368DR,4612,5237,12091,01.023,551
2022-08-17T16:32:32,42.805,6.029,CST-1368DR,4612,5237,12091,01.023,551
2022-08-17T16:35:33,42.805,6.029,CST-1368DR,4612,5236,12090,01.024,551
2022-08-17T16:38:35,42.805,6.029,CST-1368DR,4612,5238,12093,01.023,551